Location: Corralito
(10.5000°N, 67.1333°W)
Time: 08:01:48
(UTC+00:00)

STARLINK-31684 - Pass Details

Date: 18 April 2024
Orbit: 443 x 445 km, 43.0° (Epoch: 25 May)

Event Time Altitude Azimuth Distance (km) Brightness Sun altitude
Rises 23:04:55 0° 320° (NW) 2,333 7.8 -6.9°
Reaches altitude 10° 23:07:03 10° 324° (NW) 1,465 6.6 -7.4°
Maximum altitude 23:10:18 56° 44° (NE) 485 3.2 -8.2°
Enters shadow 23:13:23 11° 123° (ESE) 1,393 5.1 -8.9°
